Погода в Мужи

Погода в Мужи : погода сейчас, прогноз погоды и архив. Всё, что Вы хотите узнать о погоде в Мужи!

Хотите узнать прогноз погоды в Мужи? Тогда Вам сюда: Погода в Мужи

Поиск расширенной информации на нашем сайте:

Другие новости

Новости СМИ2

Главная страница сайта

Новости сайта

03.07.2017

Напоминаем, что на нашем специализированном сайте Метеоцентр.Азия вы можете получить высокодетализированные автоматические прогнозы погоды по пунктам России, СНГ и мира в авиационном формате (включающие направление и скорость ветра, видимость, явления погоды, количество и форму облачности, нижнюю и верхнюю границу облачности).


Погода в Мужи - сегодня

Время (UTC), дата Ветер
(°,м/с) 
Видим.   Явления Облачность Т
(°С)
Тd
(°С)
f(%) Тe
(°С)
Pmin
(гПа)
dP
(гПа)
Po
(мм)
O2
(г/м3)
Тmin Tmax R s Состояние
почвы
00 19.02.18 280 (З) 50000 м  позёмок  3/0 средняя 
[Ac trans]
-10.3 -16 63 -15  1018.9  0.6  762  321           
03 19.02.18 320 (СЗ) 6-10{10}  50000 м  позёмок  4/0 средняя, верхняя 
[Ac trans|Ci fib]
-12.9 -17.8 67 -19  1020.5  1.6  764  324  -17.5      60  неравномерный
сухой снег
100% 
18 19.02.18 тихо ()   50000 м    ясно 
-23.5 -27.1 72 -24  1026.7  0.9  768  340           
21 19.02.18 030 (СВ) 50000 м    ясно 
-27.9 -31.5 71 -29  1027.1  0.3  768  347           
00 20.02.18 тихо ()   50000 м    ясно 
-29.5 -33.3 70 -30  1028  769  349           
03 20.02.18 340 (С) 50000 м    1/0 средняя 
[Ac trans]
-29.9 -34 67 -31  1028.4  0.3  769  350  -31.8      60  неравномерный
сухой снег
100% 
06 20.02.18 360 (С) н/о    3/0 верхняя 
[Ci fib]
-28.3 -32.1 70 -32  1028.6  0.2  769  348           
09 20.02.18 360 (С) н/о    3/0 верхняя 
[Ci fib]
-25.9 -30.2 67 -26  1029.2  0.7  770  345           
12 20.02.18 300 (СЗ) н/о    8/0 верхняя 
[Ci fib]
-26.3 -30 71 -30  1028.9  -0.3  770  345           
18 20.02.18 350 (С) 18000 м  слаб. снег  10/0 средняя, верхняя 
[As op|Ci fib]
-26 -29.8 70 -29  1028.6  -0.2  769  345           
21 20.02.18 010 (С) 16000 м  слаб. снег  10/0 средняя, верхняя 
[As op|Ci fib]
-27.3 -31.3 69 -33  1028.3  -0.2  769  346           
00 21.02.18 290 (З) 50000 м    4/0 верхняя 
[Ci fib]
-29.4 -33.7 66 -35  1028.5  0.1  769  349           
03 21.02.18 360 (С) 13000 м  слаб. снег  8/0 средняя, верхняя 
[As op|Ci fib]
-30 -34.4 65 -37  1028.2  -0.3  769  350  -30.1    0.3  60  неравномерный
сухой снег
100% 
06 21.02.18 360 (С) 15000 м  слаб. снег  8/0 средняя, верхняя 
[As op|Ci fib]
-29.7 -34.1 66 -38  1028  -0.2  769  350           
15 21.02.18 020 (С) 7-13{13}  8000 м  слаб. снег  10/0 средняя 
[As op]
-29 -33.3 66 -39  1025.9  -0.7  767  348    -27.8  0.8     
03 22.02.18 010 (С) 7-12{14}  10 км  слаб. снег  10/0 средняя 
[As op]
-27.4 -31.5 68 -37  1023.9  -0.2  766  345  -29    61  неравномерный
сухой снег
100% 
15 22.02.18 010 (С) 7-12{14}  5000 м  слаб. снег  9/0 средняя 
[As op]
-24.9 -28.7 71 -34  1023.8  0.1  766  341    -24.8     
03 23.02.18 290 (З) 4{11}  30000 м    5/0 средняя 
[As trans]
-27.1 -31.1 69 -34  1026  0.5  768  345  -27.5    0.3  59  неравномерный
сухой снег
100% 
09 23.02.18 010 (С) 18000 м  слаб. снег  8/0 средняя 
[As op]
-21.6 -24.9 75 -28  1024.9  -0.5  767  337           
12 23.02.18 350 (С) н/о  {снег}  10/6 1000 м верхняя 
[Sc|Ci fib]
-21.6 -24.9 75 -26  1024.3  -0.6  766  337           
15 23.02.18 350 (С) 16000 м  слаб. снег  10/0 средняя 
[As op]
-19.3 -22.3 77 -24  1023.1  -1.2  765  334    -19.3  0.3     
18 23.02.18 360 (С) 16000 м  слаб. снег  10/0 средняя 
[As op]
-18.2 -21.1 78 -22  1022.2  -1  765  332           
21 23.02.18 010 (С) 10 км  слаб. снег  10/0 средняя 
[As op]
-18.9 -21.9 77 -24  1021.9  -0.2  765  333           
03 24.02.18 010 (С) 6-10{13}  60000 м  позёмок{снег}  3/0 средняя 
[As op]
-25.8 -29.6 70 -34  1023  1.1  765  342  -25.8    0.7  60  неравномерный
сухой снег
100% 
09 24.02.18 030 (СВ) 3{10}  н/о    ясно 
-22.1 -25.5 74 -27  1023  -0.3  765  337           
Время (UTC), дата Ветер
(°,м/с) 
Видим.   Явления Облачность Т
(°С)
Тd
(°С)
f(%) Тe
(°С)
Pmin
(гПа)
dP
(гПа)
Po
(мм)
O2
(г/м3)
Тmin Tmax R s Состояние
почвы

Для получения пояснительной информации подведите курсор к названию столбца.

ПОГОДА в Мужи - архив

Всё, что Вы хотите узнать о погоде в Мужи - удобно и подробно!

Выберите нужную дату (начиная с 1 января 2015* года) и нажмите кнопку "Найти".
Будут отображены архивные сводки погоды по пункту Мужи, начиная с указанной даты.


Отображать данные в формате CSV (для использования в таблицах Excel)


Внимание! Наш архив погоды предназначен исключительно для личного некоммерческого использования в познавательных целях. Если Вам необходимы официальные справки о состоянии погоды (для производственных, юридических, коммерческих и т.п. целей), обращайтесь в органы Росгидромета.

*Примечание: данная дата относится к архиву по метеостанциям СССР (Россия, СНГ, Балтия).
Архив по метеостанциям Зарубежной Европы и Азии (кроме Китая) хранится 10 дней, по другим регионам земного шара (Китай, Африка, Америка, Австралия, Океания) - 1 день.

Мужи - район местоположения метеостанции


Название, широта, долгота, высота метеостанции:
Мужи 65.4°ш. 64.7°д. 19 м над ур. моря [Российская Федерация]

Дополнительная информация

В oтличие oт бoльшинства пoгoдных сайтoв мы публикуем пoдрoбную метеoинфoрмацию в детальнoм прoфессиoнальнoм фoрмате.

Характеристики температуры и влажнoсти вoздуха измеряются на высoте 2 м в тени вдали oт зданий и деревьев.
Скoрoсть ветра измеряется на высoте 10 м (на урoвне рoста челoвека скoрoсть ветра ниже в 1.5-2 раза). Если метеoстанция нахoдится в гoрoде или в лесу, тo скoрoсть ветра занижена на 2-4 м/с пo сравнению с oткрытым местoм. Скoрoсть ветра над акватoриями крупных рек и oзёр, а также на вершинах хoлмoв на 2-5 м/с выше, чем в oбычных услoвиях.
Атмoсфернoе давление в разных тoчках местнoсти мoжет значительнo oтличаться oт давления на метеoстанции, в зависимoсти oт услoвий рельефа (при пoдъёме на 10 м давление пoнижается примернo на 1 мм рт.ст.).